Hourly Data Report for October 26, 2016

All times are specified in Local Standard Time (LST). Add 1 hour to adjust for Daylight Saving Time where and when it is observed.

GJOA HAVEN A
NUNAVUT

68°38'08.000" N
95°51'01.000" W
46.90 m
2302337
71597
YHK

Related Data

No related data is available for this station

Download Data

Hourly Data (October 2016)
Hourly Data Report for October 26, 2016
Temp Definition
°C
Dew Point Temp Definition
°C
Rel Hum Definition
%
Wind Dir Definition
10's deg

Wind Spd Definition
km/h
Visibility Definition
km
Stn Press Definition
kPa
Hmdx Definition


Wind Chill Definition


Weather Definition


TIME
00:00 Legend Double Dagger -9.5 -10.3 94 4 5 4.0 101.49   -12 Snow
01:00 Legend Double Dagger -9.5 -10.3 94 6 4 4.8 101.41   -12 Snow
02:00 Legend Double Dagger -9.7 -10.5 94   0 6.4 101.38     Snow
03:00 Legend Double Dagger -9.5 -10.3 94 16 4 6.4 101.31   -12 Snow
04:00 Legend Double Dagger -10.4 -11.3 93 20 8 6.4 101.25   -15 Snow
05:00 Legend Double Dagger -10.2 -11.0 94 20 11 6.4 101.20   -16 Fog
06:00 Legend Double Dagger -9.9 -10.7 94 23 11 6.4 101.12   -15 Fog
07:00 Legend Double Dagger -9.6 -10.4 94 25 11 0.4 101.06   -15 Freezing Fog
08:00 Legend Double Dagger -9.5 -10.2 95 27 15 6.4 101.01   -16 Fog
09:00 Legend Double Dagger -10.0 -10.8 94 28 15 6.4 100.95   -17 Fog
10:00 Legend Double Dagger -7.7 -8.2 96 25 18 2.4 100.90   -15 Snow
11:00 Legend Double Dagger -7.1 -7.6 96 27 22 2.8 100.84   -15 Snow
12:00 Legend Double Dagger -6.3 -6.7 97 26 26 2.0 100.80   -14 Snow
13:00 Legend Double Dagger -5.6 -6.0 97 27 28 1.2 100.76   -14 Snow
14:00 Legend Double Dagger -7.8 -8.5 95 32 24 16.1 100.80   -16 Snow
15:00 Legend Double Dagger -9.3 -10.0 95 33 28 16.1 100.85   -18 LegendNANA
16:00 Legend Double Dagger -10.7 -11.6 93 34 28 16.1 100.91   -20 LegendNANA
17:00 Legend Double Dagger -13.7 -15.0 90 35 30 16.1 100.97   -24 LegendNANA
18:00 Legend Double Dagger -15.5 -16.9 89 36 30 16.1 101.03   -27 LegendNANA
19:00 Legend Double Dagger -16.7 -18.1 89 36 30 16.1 101.07   -28 LegendNANA
20:00 Legend Double Dagger -18.5 -20.2 87 35 26 16.1 101.11   -30 LegendNANA
21:00 Legend Double Dagger -19.4 -21.2 86 35 30 16.1 101.16   -32 LegendNANA
22:00 Legend Double Dagger -19.3 -21.1 86 35 30 16.1 101.20   -32 LegendNANA
23:00 Legend Double Dagger -19.3 -21.0 86 35 26 16.1 101.24   -31 LegendNANA

Notes on Data Quality.

Legend

  • E = Estimated
  • M = Missing
  • NA = Not Available
  • ‡ = Partner data that is not subject to review by the National Climate Archives
Date modified: